Grinnell, IA

12:44 PM CST on November 23, 2017 (GMT -0600)
Grinnell Regional

Weather History for KGGI - February, 2013

Change the Weather History Date:

Monday, February 18, 2013

  Actual Average (KTNU) Record (KTNU)
Temperature  
Mean Temperature 30 °F -  
Max Temperature 44 °F 37 °F 62 °F (1981)
Min Temperature 15 °F 21 °F -9 °F (2006)
Degree Days  
Heating Degree Days 35    
Moisture  
Dew Point 25 °F    
Average Humidity 77    
Maximum Humidity 88    
Minimum Humidity 62    
Precipitation  
Precipitation 0.00 in - - ()
Sea Level Pressure  
Sea Level Pressure 29.66 in    
Wind  
Wind Speed 16 mph (West)    
Max Wind Speed 36 mph    
Max Gust Speed 44 mph    
Visibility 10 miles    
Events Rain , Snow    
Averages and records for this station are not official NWS values.
T = Trace of Precipitation, MM = Missing Value Source: NWS Daily Summary

Daily Weather History Graph

Daily Weather History Graph

Search for Another Location

Airport or City:

Trip Planner

Search our weather history database for the weather conditions in past years. The results will help you decide how hot, cold, wet, or windy it might be!

Date:

Astronomy

Feb. 18, 2013 Rise Set
Actual Time 7:01 AM CST 5:48 PM CST
Civil Twilight 6:33 AM CST 6:16 PM CST
Nautical Twilight 6:01 AM CST 6:49 PM CST
Astronomical Twilight 5:28 AM CST 7:21 PM CST
Moon 11:32 AM CST (2/18) 1:44 AM CST (2/18)
Length of Visible Light 11h 43m
Length of Day
10h 46m
First Quarter, 58% of the Moon is Illuminated
Feb 18
First Quarter
Feb 25
Full
Mar 4
Last Quarter
Mar 11
New
Mar 19
First Quarter

Hourly Weather History & Observations

Time (CST) Temp. Windchill Dew Point Humidity Pressure Visibility Wind Dir Wind Speed Gust Speed Precip Events Conditions
12:15 AM 32.4 °F 20.9 °F 24.8 °F 74% 29.69 in 10.0 mi SE 18.4 mph - N/A   Clear
12:35 AM 32.9 °F 22.0 °F 24.8 °F 72% 29.67 in 10.0 mi SE 17.3 mph - N/A   Clear
12:55 AM 32.9 °F 22.8 °F 25.3 °F 74% 29.66 in 10.0 mi SE 15.0 mph - N/A   Clear
1:15 AM 33.1 °F 22.2 °F 25.7 °F 74% 29.66 in 10.0 mi SE 17.3 mph 21.9 mph N/A   Clear
1:35 AM 33.1 °F 23.0 °F 25.9 °F 75% 29.65 in 10.0 mi SE 15.0 mph - N/A   Clear
1:55 AM 33.1 °F 23.4 °F 26.4 °F 77% 29.64 in 10.0 mi SE 13.8 mph - N/A   Clear
2:15 AM 33.1 °F 23.0 °F 26.6 °F 77% 29.64 in 10.0 mi SE 15.0 mph - N/A   Clear
2:35 AM 32.9 °F 24.1 °F 26.6 °F 78% 29.63 in 10.0 mi SSE 11.5 mph - N/A   Clear
2:55 AM 33.3 °F 24.6 °F 27.1 °F 78% 29.62 in 10.0 mi SE 11.5 mph - N/A   Clear
3:15 AM 33.3 °F 25.1 °F 27.3 °F 79% 29.60 in 10.0 mi SE 10.4 mph - N/A   Clear
3:35 AM 33.3 °F 25.1 °F 27.5 °F 79% 29.60 in 10.0 mi SSE 10.4 mph - N/A   Clear
3:55 AM 32.9 °F 25.3 °F 27.5 °F 81% 29.59 in 10.0 mi SSE 9.2 mph - N/A   Clear
4:15 AM 33.3 °F 25.7 °F 27.5 °F 79% 29.58 in 10.0 mi SE 9.2 mph - N/A   Clear
4:35 AM 33.3 °F 25.1 °F 27.9 °F 81% 29.58 in 10.0 mi SSE 10.4 mph - N/A   Clear
4:55 AM 33.1 °F 24.9 °F 28.0 °F 82% 29.58 in 10.0 mi SSE 10.4 mph - N/A   Clear
5:15 AM 33.3 °F 24.6 °F 28.2 °F 82% 29.58 in 10.0 mi SSE 11.5 mph - N/A   Clear
5:35 AM 33.4 °F 25.4 °F 28.2 °F 81% 29.57 in 10.0 mi SSE 10.4 mph - N/A   Clear
6:15 AM 32.9 °F 26.7 °F 28.2 °F 83% 29.57 in 10.0 mi SSE 6.9 mph - N/A   Clear
6:35 AM 32.4 °F 26.9 °F 28.0 °F 84% 29.56 in 10.0 mi SSE 5.8 mph - N/A   Clear
6:55 AM 32.2 °F 26.7 °F 28.0 °F 85% 29.56 in 10.0 mi SSE 5.8 mph - N/A   Clear
7:15 AM 33.3 °F 27.9 °F 28.9 °F 84% 29.57 in 10.0 mi South 5.8 mph - N/A   Clear
7:35 AM 33.1 °F 30.0 °F 28.6 °F 84% 29.57 in 10.0 mi South 3.5 mph - N/A   Clear
7:55 AM 32.5 °F 29.3 °F 28.4 °F 85% 29.58 in 10.0 mi West 3.5 mph - N/A   Clear
8:15 AM 33.8 °F - 29.5 °F 84% 29.58 in 10.0 mi Calm Calm - N/A   Clear
8:35 AM 36.5 °F 31.8 °F 30.7 °F 80% 29.57 in 10.0 mi SSE 5.8 mph - N/A   Clear
8:55 AM 37.4 °F 34.9 °F 30.7 °F 77% 29.57 in 10.0 mi SSW 3.5 mph - N/A   Clear
9:15 AM 39.2 °F 37.0 °F 31.3 °F 73% 29.57 in 10.0 mi SSW 3.5 mph - N/A   Clear
9:35 AM 40.5 °F 36.5 °F 30.9 °F 69% 29.57 in 10.0 mi SW 5.8 mph - N/A   Clear
9:55 AM 40.5 °F 35.1 °F 31.1 °F 69% 29.57 in 10.0 mi West 8.1 mph - N/A   Clear
10:35 AM 41.9 °F 35.0 °F 31.1 °F 66% 29.57 in 10.0 mi WNW 12.7 mph 17.3 mph N/A   Clear
10:55 AM 42.4 °F 36.5 °F 31.3 °F 65% 29.57 in 10.0 mi NW 10.4 mph - N/A   Clear
11:15 AM 43.7 °F 37.3 °F 31.6 °F 63% 29.58 in 10.0 mi NW 12.7 mph - N/A   Clear
11:35 AM 44.4 °F 37.5 °F 32.0 °F 62% 29.59 in 10.0 mi NW 15.0 mph 18.4 mph N/A   Clear
11:55 AM 43.0 °F 35.7 °F 32.0 °F 65% 29.59 in 10.0 mi NW 15.0 mph 19.6 mph N/A   Scattered Clouds
12:15 PM 42.6 °F 33.5 °F 32.0 °F 66% 29.57 in 10.0 mi NW 21.9 mph - N/A   Overcast
12:35 PM 41.7 °F 33.1 °F 32.2 °F 69% 29.58 in 10.0 mi NW 18.4 mph 24.2 mph N/A   Overcast
12:55 PM 40.1 °F 29.9 °F 32.0 °F 73% 29.59 in 10.0 mi WNW 23.0 mph - N/A   Overcast
1:15 PM 38.7 °F 28.0 °F 32.0 °F 77% 29.61 in 10.0 mi WNW 23.0 mph - N/A   Overcast
1:35 PM 37.6 °F 27.4 °F 32.0 °F 80% 29.61 in 10.0 mi NW 19.6 mph 29.9 mph N/A   Light Drizzle
1:55 PM 37.6 °F 27.1 °F 32.2 °F 81% 29.60 in 10.0 mi NW 20.7 mph 28.8 mph N/A Rain Light Rain
2:15 PM 38.3 °F 27.3 °F 32.2 °F 79% 29.60 in 10.0 mi NW 24.2 mph 29.9 mph N/A   Light Drizzle
2:35 PM 35.1 °F 23.8 °F 31.5 °F 87% 29.61 in 7.0 mi NW 20.7 mph 33.4 mph N/A   Overcast
2:55 PM 32.9 °F 19.1 °F 29.8 °F 88% 29.63 in 7.0 mi WNW 28.8 mph 33.4 mph N/A   Overcast
3:15 PM 32.0 °F 18.1 °F 26.6 °F 80% 29.63 in 10.0 mi NW 27.6 mph 36.8 mph N/A   Overcast
3:35 PM 32.0 °F 17.4 °F 26.4 °F 80% 29.63 in 10.0 mi NW 31.1 mph 38.0 mph N/A   Overcast
3:55 PM 30.2 °F 16.2 °F 26.4 °F 86% 29.64 in 3.0 mi NW 25.3 mph 36.8 mph N/A Snow Light Snow
4:15 PM 29.1 °F 14.8 °F 25.7 °F 87% 29.66 in 2.5 mi NW 25.3 mph 34.5 mph N/A Snow Light Snow
4:35 PM 28.9 °F 14.8 °F 24.8 °F 84% 29.67 in 7.0 mi NW 24.2 mph 34.5 mph N/A   Overcast
4:55 PM 28.6 °F 13.2 °F 22.6 °F 78% 29.69 in 10.0 mi NW 28.8 mph 35.7 mph N/A   Overcast
5:15 PM 27.7 °F 14.1 °F 21.7 °F 78% 29.70 in 10.0 mi NW 20.7 mph 34.5 mph N/A   Overcast
5:35 PM 27.3 °F 13.3 °F 21.4 °F 78% 29.71 in 10.0 mi NW 21.9 mph 33.4 mph N/A   Overcast
5:55 PM 27.5 °F 12.6 °F 21.2 °F 77% 29.72 in 10.0 mi WNW 25.3 mph 31.1 mph N/A   Overcast
6:15 PM 26.4 °F 10.1 °F 19.6 °F 75% 29.73 in 10.0 mi NW 29.9 mph 36.8 mph N/A   Overcast
6:35 PM 25.3 °F 8.3 °F 18.0 °F 74% 29.75 in 10.0 mi WNW 31.1 mph 41.4 mph N/A   Overcast
6:55 PM 23.9 °F 8.8 °F 17.2 °F 76% 29.76 in 10.0 mi NW 21.9 mph 35.7 mph N/A   Mostly Cloudy
7:15 PM 23.5 °F 6.4 °F 16.7 °F 75% 29.77 in 10.0 mi NW 28.8 mph 35.7 mph N/A   Overcast
7:35 PM 23.0 °F 6.3 °F 16.2 °F 75% 29.77 in 10.0 mi NW 26.5 mph 33.4 mph N/A   Mostly Cloudy
7:55 PM 22.1 °F 6.0 °F 14.9 °F 74% 29.78 in 10.0 mi WNW 23.0 mph 33.4 mph N/A   Mostly Cloudy
8:15 PM 22.1 °F 6.4 °F 15.8 °F 77% 29.79 in 10.0 mi NW 21.9 mph 29.9 mph N/A   Overcast
8:35 PM 21.7 °F 5.9 °F 15.3 °F 76% 29.79 in 10.0 mi WNW 21.9 mph 29.9 mph N/A   Overcast
8:55 PM 20.8 °F 2.5 °F 13.1 °F 72% 29.80 in 10.0 mi WNW 29.9 mph 36.8 mph N/A   Overcast
9:15 PM 19.8 °F 1.3 °F 11.8 °F 71% 29.82 in 10.0 mi WNW 28.8 mph 35.7 mph N/A   Mostly Cloudy
9:35 PM 18.5 °F -2.1 °F 10.4 °F 71% 29.82 in 10.0 mi WNW 35.7 mph 43.7 mph N/A Snow Light Snow
9:55 PM 17.4 °F -0.9 °F 9.5 °F 71% 29.83 in 10.0 mi WNW 25.3 mph 39.1 mph N/A   Mostly Cloudy
10:15 PM 16.7 °F -0.7 °F 10.2 °F 76% 29.84 in 10.0 mi WNW 21.9 mph 29.9 mph N/A   Scattered Clouds
10:35 PM 17.4 °F 0.6 °F 11.1 °F 76% 29.84 in 10.0 mi WNW 20.7 mph 27.6 mph N/A Snow Light Snow
10:55 PM 17.6 °F -1.9 °F 11.8 °F 78% 29.84 in 7.0 mi WNW 29.9 mph 36.8 mph N/A Snow Light Snow
11:15 PM 16.5 °F -2.1 °F 9.9 °F 75% 29.85 in 10.0 mi WNW 25.3 mph 34.5 mph N/A Snow Light Snow
11:55 PM 15.3 °F -2.2 °F 8.1 °F 73% 29.86 in 10.0 mi WNW 20.7 mph 31.1 mph N/A   Scattered Clouds